Find Starlink 2400

NORAD ID: 47817 Int'l Des: 2021-018 Owner: SPXS Country: US Constellation: starlink operational
LEOCIRCULAR

現在のビュー

3D地球を読み込み中...

Starlink 2400について

説明を読み込み中...

次回通過

Passes for default location (London). Set your location on the main map for personalized predictions.

高度履歴

Loading altitude history...

軌道要素

1 47817U 21018AG 26150.60077095 .00002972 00000-0 10752-3 0 9995
2 47817 53.1598 222.1313 0001750 87.3550 272.7652 15.31697833289269
Epoch: May 30, 2026 • Age: 26 hours

現在のステータス

高度 488.8 km
速度 7.62 km/s
衛星直下点 -49.35°S, 40.43°W
打ち上げ日 Mar 11, 2021
運用期間 5.2 years
タイプ internet

技術仕様

分類 Payload
質量 260.00 kg
乾燥質量 248.00 kg
総質量 260.00 kg
長さ 0.20 m
直径 2.80 m
スパン 9.00 m
形状 Box + pan
製造者 SPXS
バスタイプ Starlink
フェーズステータス In Orbit
所有者/国 SPXS/US

Most Searched